This demonstration page uses our WeatherBlox Daily Observations layout. Learn more.

Left ArrowRight Arrow

Hourly Observations for November 12, 2015

Temp ( °F °C ) Dew Point ( °F °C ) Humidity (%) Winds ( mph kmh ) Pressure ( in mb ) Visibility ( mi km ) Precip ( " mm )
12:53 am 00:53 Clear 40 4.4 26 -3.3 58 58 E 3 6 30.10 1019 10 16 0.00 0.00
1:53 am 01:53 Clear 38 3.3 27 -2.8 65 65 NNW 9 15 30.11 1020 10 16 0.00 0.00
2:53 am 02:53 Clear 40 4.4 25 -3.9 55 55 N 10 17 30.10 1019 10 16 0.00 0.00
3:53 am 03:53 Clear 36 2.2 25 -3.9 64 64 NNW 7 11 30.12 1020 10 16 0.00 0.00
4:53 am 04:53 Clear 35 1.7 26 -3.3 70 70 N 9 15 30.13 1020 10 16 0.00 0.00
5:53 am 05:53 Clear 33 0.6 25 -3.9 72 72 NNW 6 9 30.18 1022 10 16 0.00 0.00
6:53 am 06:53 Clear 33 0.6 25 -3.9 72 72 SSW 6 9 30.23 1024 10 16 0.00 0.00
7:53 am 07:53 Sunny 34 1.1 25 -3.9 70 70 W 6 9 30.25 1024 10 16 0.00 0.00
8:53 am 08:53 Sunny 47 8.3 25 -3.9 42 42 Calm 30.27 1025 10 16 0.00 0.00
9:53 am 09:53 Sunny 52 11.1 24 -4.4 34 34 Calm 30.27 1025 10 16 0.00 0.00
10:53 am 10:53 Sunny 55 12.8 25 -3.9 31 31 Calm 30.27 1025 10 16 0.00 0.00
11:53 am 11:53 Sunny 59 15 26 -3.3 28 28 VRB 5 7 30.25 1024 10 16 0.00 0.00
12:53 pm 12:53 Sunny 63 17.2 27 -2.8 26 26 Calm 30.21 1023 10 16 0.00 0.00
1:53 pm 13:53 Sunny 65 18.3 25 -3.9 22 22 SSE 5 7 30.17 1022 10 16 0.00 0.00
2:53 pm 14:53 Sunny 66 18.9 23 -5 19 19 E 8 13 30.15 1021 10 16 0.00 0.00
3:53 pm 15:53 Sunny 67 19.4 23 -5 19 19 VRB 5 7 30.13 1020 10 16 0.00 0.00
4:53 pm 16:53 Sunny 65 18.3 23 -5 20 20 SE 8 13 30.14 1021 10 16 0.00 0.00
5:53 pm 17:53 Sunny 59 15 25 -3.9 27 27 SSE 7 11 30.15 1021 10 16 0.00 0.00
6:53 pm 18:53 Clear 54 12.2 25 -3.9 33 33 SE 7 11 30.17 1022 10 16 0.00 0.00
7:53 pm 19:53 Clear 52 11.1 26 -3.3 37 37 E 6 9 30.19 1022 10 16 0.00 0.00
8:53 pm 20:53 Clear 50 10 28 -2.2 43 43 E 7 11 30.18 1022 10 16 0.00 0.00
9:53 pm 21:53 Clear 49 9.4 30 -1.1 48 48 E 7 11 30.18 1022 10 16 0.00 0.00
10:53 pm 22:53 Clear 49 9.4 30 -1.1 48 48 E 8 13 30.17 1022 10 16 0.00 0.00
11:53 pm 23:53 Mostly Clear 47 8.3 30 -1.1 52 52 E 7 11 30.18 1022 10 16 0.00 0.00

Powered by AerisWeather